HISPASAT 36W-1

Last updated on Wed Oct 15 2025 00:02:48 GMT+0000 (Coordinated Universal Time)

1 41942U 17006A 25287.26533148 -.00000258 00000+0 00000+0 0 9994 2 41942 0.0159 37.6458 0001044 160.4277 244.5255 1.00271239 31754
UTC large
Height (km)
Speed (km/s)
/
Latitude / Longitude
Inclination (degrees)
Orbital Period (minutes)
Azimuth
Elevation
Range (km)
Doppler Factor

Next 0 passes for location: London (51.5072 / 0.1276)

Sorry there are no passes over London.